Weather History for Jackson, WY

Change the Weather History Date:

Sunday, December 9, 2012

  Actual Average Record
Temperature  
Mean Temperature 6 °F -  
Max Temperature 17 °F 25 °F 42 °F (1979)
Min Temperature -5 °F 3 °F -28 °F (1972)
Degree Days  
Heating Degree Days 59    
Moisture  
Dew Point 1 °F    
Average Humidity 77    
Maximum Humidity 92    
Minimum Humidity 49    
Precipitation  
Precipitation 0.00 in - - ()
Sea Level Pressure  
Sea Level Pressure 30.09 in    
Wind  
Wind Speed 6 mph (West)    
Max Wind Speed 17 mph    
Max Gust Speed 29 mph    
Visibility 10 miles    
Events      
Averages and records for this station are not official NWS values.
T = Trace of Precipitation, MM = Missing Value Source: NWS Daily Summary

Daily Weather History Graph

Daily Weather History Graph

Search for Another Location

Airport:

Trip Planner

Search our weather history database for the weather conditions in past years. The results will help you decide how hot, cold, wet, or windy it might be!

Date:

Astronomy

Dec. 09, 2012 Rise Set
Actual Time 7:44 AM MST 4:46 PM MST
Civil Twilight 7:12 AM MST 5:18 PM MST
Nautical Twilight 6:36 AM MST 5:54 PM MST
Astronomical Twilight 6:01 AM MST 6:29 PM MST
Moon 3:16 AM MST (12/9) 2:00 PM MST (12/9)
Length of Visible Light 10h 06m
Length of Day
9h 01m
Waning Crescent, 18% of the Moon is Illuminated
Dec 9
Waning Crescent
Dec 13
New
Dec 19
First Quarter
Dec 28
Full
Jan 4
Last Quarter

Hourly Weather History & Observations

Time (MST) Temp. Windchill Dew Point Humidity Pressure Visibility Wind Dir Wind Speed Gust Speed Precip Events Conditions
12:15 AM -0.4 °F -12.0 °F -2.2 °F 92% 30.01 in 10.0 mi North 5.8 mph - N/A   Clear
12:55 AM -4.0 °F -16.3 °F -5.8 °F 92% 30.02 in 10.0 mi North 5.8 mph - N/A   Overcast
1:15 AM -0.4 °F -12.0 °F -2.2 °F 92% 30.02 in 10.0 mi North 5.8 mph - N/A   Overcast
1:55 AM -0.4 °F - -2.2 °F 92% 30.03 in 10.0 mi Calm Calm - N/A   Overcast
2:15 AM 1.4 °F -8.3 °F -2.2 °F 85% 30.03 in 10.0 mi NNW 4.6 mph - N/A   Overcast
2:35 AM 1.4 °F -6.2 °F -0.4 °F 92% 30.04 in 10.0 mi NNW 3.5 mph - N/A   Overcast
2:55 AM 1.4 °F -8.3 °F -0.4 °F 92% 30.04 in 10.0 mi North 4.6 mph - N/A   Overcast
3:35 AM 1.4 °F -8.3 °F -0.4 °F 92% 30.05 in 10.0 mi NNW 4.6 mph - N/A   Overcast
3:55 AM 1.4 °F -8.3 °F -2.2 °F 85% 30.05 in 10.0 mi NNW 4.6 mph - N/A   Scattered Clouds
4:15 AM 1.4 °F - -2.2 °F 85% 30.05 in 10.0 mi Calm Calm - N/A   Clear
5:15 AM -2.2 °F -12.5 °F -5.8 °F 85% 30.07 in 10.0 mi North 4.6 mph - N/A   Mostly Cloudy
5:35 AM -2.2 °F -14.2 °F -5.8 °F 85% 30.08 in 10.0 mi North 5.8 mph - N/A   Overcast
5:55 AM -0.4 °F -8.3 °F -4.0 °F 85% 30.09 in 10.0 mi North 3.5 mph - N/A   Overcast
6:15 AM -2.2 °F -12.5 °F -4.0 °F 92% 30.10 in 10.0 mi NNW 4.6 mph - N/A   Mostly Cloudy
6:53 AM -4.0 °F -14.6 °F -7.6 °F 85% 30.12 in 10.0 mi NNW 4.6 mph - N/A   Clear
6:55 AM -2.2 °F -10.4 °F -7.6 °F 78% 30.11 in 10.0 mi NNW 3.5 mph - N/A   Clear
7:55 AM -5.8 °F -14.5 °F -9.4 °F 84% 30.14 in 10.0 mi North 3.5 mph - N/A   Clear
8:52 AM -0.4 °F - -5.8 °F 78% 30.16 in 10.0 mi Calm Calm - N/A   Clear
9:51 AM 3.2 °F - -2.2 °F 78% 30.18 in 10.0 mi Calm Calm - N/A   Clear
10:53 AM 6.8 °F - - N/A% 30.19 in 10.0 mi Calm Calm - N/A   Clear
11:54 AM 10.4 °F - 1.4 °F 67% 30.16 in 10.0 mi Calm Calm - N/A   Clear
12:54 PM 10.4 °F 2.2 °F 3.2 °F 73% 30.16 in 10.0 mi SE 4.6 mph - N/A   Clear
1:54 PM 12.2 °F 4.3 °F 5.0 °F 73% 30.14 in 10.0 mi South 4.6 mph - N/A   Clear
2:51 PM 12.2 °F 4.3 °F 5.0 °F 73% 30.13 in 10.0 mi South 4.6 mph - N/A   Mostly Cloudy
3:53 PM 14.0 °F 8.2 °F 5.0 °F 67% 30.14 in 10.0 mi SSW 3.5 mph - N/A   Scattered Clouds
4:51 PM 12.2 °F 1.7 °F -0.4 °F 57% 30.13 in 10.0 mi SSW 6.9 mph - N/A   Partly Cloudy
5:58 PM 14.0 °F -1.4 °F 3.2 °F 62% 30.12 in 10.0 mi South 15.0 mph - N/A   Mostly Cloudy
6:51 PM 15.8 °F 8.6 °F -0.4 °F 49% 30.11 in 10.0 mi South 4.6 mph 26.5 mph N/A   Mostly Cloudy
7:56 PM 15.8 °F 4.2 °F 3.2 °F 58% 30.10 in 10.0 mi SW 9.2 mph - N/A   Overcast
8:52 PM 15.8 °F 0.9 °F 6.8 °F 68% 30.09 in 10.0 mi SSW 15.0 mph - N/A   Mostly Cloudy
9:15 PM 15.8 °F 2.1 °F 6.8 °F 68% 30.10 in 10.0 mi WSW 12.7 mph 26.5 mph N/A   Overcast
9:35 PM 15.8 °F 2.1 °F 8.6 °F 73% 30.10 in 10.0 mi SW 12.7 mph 21.9 mph N/A   Overcast
9:55 PM 15.8 °F 1.4 °F 8.6 °F 73% 30.09 in 10.0 mi SW 13.8 mph 28.8 mph N/A   Overcast
10:35 PM 17.6 °F 4.3 °F 8.6 °F 68% 30.10 in 10.0 mi SSW 12.7 mph 20.7 mph N/A   Overcast
10:55 PM 17.6 °F 2.7 °F 8.6 °F 68% 30.09 in 10.0 mi South 16.1 mph 20.7 mph N/A   Overcast
11:16 PM 17.6 °F 2.2 °F 8.6 °F 68% 30.09 in 10.0 mi SSW 17.3 mph 26.5 mph N/A   Overcast
11:35 PM 17.6 °F 3.2 °F 6.8 °F 63% 30.09 in 10.0 mi SSW 15.0 mph 21.9 mph N/A   Overcast
11:55 PM 17.6 °F 3.7 °F 8.6 °F 68% 30.07 in 10.0 mi SSW 13.8 mph - N/A   Overcast